Regional Weather Roundup
Issued by NWS Northern Indiana

Home | Current Version | Previous Version | Text Only | Print | Product List | Glossary On
Versions: 1 2 3 4 5 6 7 8 9 10 11 12 13 14 15 16 17 18 19 20 21 22 23 24 25 26 27 28 29 30 31 32 33 34 35 36 37 38 39 40 41 42 43 44 45 46 47 48 49 50
000
ASUS43 KIWX 251910
RWRIWX

KIWX WEATHER ROUNDUP
NATIONAL WEATHER SERVICE NORTHERN INDIANA
300 PM EDT MON MAY 25 2015

NOTE: "FAIR" INDICATES FEW OR NO CLOUDS BELOW 12,000 FEET WITH NO
SIGNIFICANT WEATHER AND/OR OBSTRUCTIONS TO VISIBILITY.

* THESE STATIONS ARE NOT UNDER NWS QUALITY CONTROL. THEY ALSO MAY NOT
  REPORT WEATHER SUCH AS PRECIPITATION OR FOG.

INZ001>027-252000-
NORTHERN INDIANA

CITY           SKY/WX    TMP DP  RH WIND       PRES   REMARKS
GARY*          PTSUNNY   77  63  61 SW23G41   29.92R
VALPARAISO     PTSUNNY   80  60  50 SW24G36   29.94S
MICHIGAN CITY* PTSUNNY   79  59  50 SW21G33   29.93R
LAPORTE*       PTSUNNY   79  62  55 SW23G29   29.94S
KNOX*          MOSUNNY   79  59  50 SW23G32   29.94R
SOUTH BEND     PTSUNNY   78  61  55 SW25G38   29.93F
ELKHART*       MOSUNNY   75  66  73 SW22G28   29.95R
GOSHEN         MOSUNNY   81  63  54 SW25G35   29.94S
MONTICELLO*    PTSUNNY   80  60  49 SW23G32   29.97S
LOGANSPORT*    MOSUNNY   77  57  50 SW24G35   30.00R
ROCHESTER*     MOSUNNY   81  61  50 SW17G28   29.97F
WARSAW*        MOSUNNY   79  63  57 SW12G24   29.97S
ANGOLA*        MOSUNNY   79  73  83 SW20G33   29.96F
FORT WAYNE     PTSUNNY   79  63  57 SW25G33   30.01F
HUNTINGTON*    CLOUDY    78  62  57 SW18G28   30.01S
PERU/GRISSOM   PTSUNNY   72  64  78 SW18G36   30.00R
MARION*        CLOUDY    78  61  54 SW25G31   30.04S

$$
INZ028>050-252000-
CENTRAL INDIANA

CITY           SKY/WX    TMP DP  RH WIND       PRES   REMARKS
LAFAYETTE      PTSUNNY   79  61  53 SW10G24   29.98F
KOKOMO*        PTSUNNY   79  63  57 SW24G31   30.01F
MUNCIE*        PTSUNNY   77  64  64 S17G28    30.06S
INDIANAPOLIS   PTSUNNY   77  65  66 SW22G29   30.05F

$$
MIZ043>046-050>051-056>058-064>065-071>073-077>080-252000-
SOUTHWEST LOWER MICHIGAN

CITY           SKY/WX    TMP DP  RH WIND       PRES   REMARKS
BATTLE CREEK   CLOUDY    77  61  57 SW26G35   29.91F
BENTON HARBOR  PTSUNNY   73  63  70 SW22G31   29.92R
COLDWATER*     PTSUNNY   78  61  54 SW20G30   29.94F
HILLSDALE*     PTSUNNY   78  63  60 SW21G28   29.97F
HOLLAND        PTSUNNY   74  62  66 SW26G41   29.90F
GRAND RAPIDS   PTSUNNY   73  65  75 SW17      29.89F
KALAMAZOO      PTSUNNY   73  66  78 SW14      29.92R
STURGIS*       HVY RAIN  73  64  73 SW26G43   29.95R
THREE RIVERS*  LGT RAIN  70  65  83 W12G24    29.94R

$$
OHZ001>008-015>018-024>025-252000-
NORTHWEST OHIO

CITY           SKY/WX    TMP DP  RH WIND       PRES   REMARKS
WAUSEON*       PTSUNNY   79  64  61 SW26G37   29.99S
DEFIANCE       PTSUNNY   80  63  55 SW20G38   30.00F
FINDLAY        CLOUDY    76  62  62 SW25G33   30.06R
TOLEDO EXPRESS PTSUNNY   78  63  59 SW18G38   30.00S
TOLEDO METCALF PTSUNNY   80  61  52 SW28G36   30.01S
LIMA           PTSUNNY   74  63  68 SW16G31   30.08S

$$
AND FOR LAKE MICHIGAN COASTAL AND OPEN LAKE BUOY OBSERVATIONS

STATION/POSITION TEMP    WIND        PRES    VSBY  WAVE
                 AIR SEA DIR/SP/G                  HT/PER
                 (F)     (DEG/KT/KT) (MB)    (MI)  (FT/S)
CALUMET HARBOR    73     210/ 11/ 18   N/A
MICHIGAN CITY     67     240/ 18/ 22   N/A
BURNS HARBOR      76     230/ 25/ 33 1013.2S
SAINT JOSEPH      61     200/ 12/ 14 1013.9S
SOUTH LAKE BUOY   49 38  200/ 16/ 17 1011.6F         2/ 4
4 MI NW BRIDGMAN  59 54  280/ 14/ 16   N/A           2/ 3
MICHIGAN CITY     58 52  280/  8/ 12   N/A           3/ 4

$$
&&



USA.gov is the U.S. government's official web portal to all federal, state and local government web resources and services.